TimeEST,TemperatureF,Dew PointF,Humidity,Sea Level PressureIn,VisibilityMPH,Wind Direction,Wind SpeedMPH,Gust SpeedMPH,PrecipitationIn,Events,Conditions,WindDirDegrees,DateUTC
12:56 AM,39.0,28.9,67,30.01,10.0,SW,4.6,-,N/A,,Clear,230,2012-02-02 05:56:00
1:56 AM,37.9,28.0,68,30.01,10.0,WSW,4.6,-,N/A,,Clear,250,2012-02-02 06:56:00
2:56 AM,37.0,28.0,70,30.01,10.0,WSW,4.6,-,N/A,,Clear,250,2012-02-02 07:56:00
3:56 AM,36.0,28.9,76,30.02,10.0,SW,5.8,-,N/A,,Clear,230,2012-02-02 08:56:00
4:56 AM,36.0,28.0,73,30.02,10.0,West,4.6,-,N/A,,Clear,260,2012-02-02 09:56:00
5:56 AM,33.1,28.0,82,30.04,10.0,Calm,Calm,-,N/A,,Mostly Cloudy,0,2012-02-02 10:56:00
6:56 AM,35.1,30.0,82,30.05,10.0,Calm,Calm,-,N/A,,Overcast,0,2012-02-02 11:56:00
7:56 AM,37.9,30.0,73,30.06,10.0,NNW,4.6,-,N/A,,Overcast,340,2012-02-02 12:56:00
8:56 AM,39.9,30.0,68,30.07,10.0,North,4.6,-,N/A,,Overcast,360,2012-02-02 13:56:00
9:56 AM,41.0,28.9,62,30.07,10.0,North,9.2,-,N/A,,Overcast,350,2012-02-02 14:56:00
10:56 AM,41.0,28.0,60,30.07,10.0,North,8.1,-,N/A,,Overcast,10,2012-02-02 15:56:00
11:56 AM,39.0,30.9,73,30.07,10.0,ENE,11.5,-,N/A,,Overcast,70,2012-02-02 16:56:00
12:15 PM,37.4,30.2,75,30.03,10.0,ENE,11.5,-,N/A,,Overcast,70,2012-02-02 17:15:00
12:56 PM,36.0,30.0,79,30.08,10.0,East,9.2,-,N/A,,Overcast,80,2012-02-02 17:56:00
1:56 PM,35.1,28.0,76,30.07,10.0,NE,9.2,-,N/A,,Overcast,50,2012-02-02 18:56:00
2:28 PM,33.8,28.4,81,30.03,10.0,ENE,8.1,-,N/A,,Overcast,60,2012-02-02 19:28:00
2:56 PM,34.0,27.0,75,30.08,10.0,ENE,11.5,-,N/A,,Overcast,70,2012-02-02 19:56:00
3:21 PM,33.8,26.6,75,30.04,10.0,NE,8.1,-,N/A,,Overcast,50,2012-02-02 20:21:00
3:41 PM,33.8,26.6,75,30.04,10.0,NE,10.4,-,N/A,,Overcast,50,2012-02-02 20:41:00
3:56 PM,33.1,26.1,75,30.10,10.0,ENE,9.2,-,N/A,,Overcast,70,2012-02-02 20:56:00
4:56 PM,33.1,26.1,75,30.12,10.0,ENE,5.8,-,N/A,,Overcast,60,2012-02-02 21:56:00
5:41 PM,32.0,26.6,80,30.09,10.0,NE,6.9,-,N/A,,Overcast,50,2012-02-02 22:41:00
5:56 PM,32.0,26.1,79,30.14,10.0,ENE,5.8,-,N/A,,Overcast,70,2012-02-02 22:56:00
6:56 PM,32.0,26.1,79,30.14,10.0,NE,5.8,-,N/A,,Overcast,40,2012-02-02 23:56:00
7:27 PM,32.0,26.6,80,30.11,10.0,NE,6.9,-,N/A,,Overcast,40,2012-02-03 00:27:00
7:56 PM,32.0,26.1,79,30.17,10.0,NNE,5.8,-,N/A,,Overcast,20,2012-02-03 00:56:00
8:34 PM,30.2,24.8,80,30.13,10.0,North,6.9,-,N/A,,Overcast,360,2012-02-03 01:34:00
8:56 PM,30.9,25.0,79,30.19,10.0,North,4.6,-,N/A,,Overcast,10,2012-02-03 01:56:00
9:56 PM,30.9,25.0,79,30.20,10.0,North,6.9,-,N/A,,Overcast,360,2012-02-03 02:56:00
10:56 PM,30.0,23.0,75,30.22,10.0,NNE,6.9,-,N/A,,Overcast,20,2012-02-03 03:56:00
11:56 PM,30.0,21.0,69,30.23,10.0,NNE,5.8,-,N/A,,Overcast,20,2012-02-03 04:56:00